SCP
0 0 0 0 0 0 0 0 0 0 0 0 0 0 0 0 0 0 0 0 0 0 0 0 0 0 0 0 0 0 0 0 0 0 0 0 0 0 0 0 0 0 0 0 0 0 0 0 0
0 0 0 0 0 0 0 0 0 0 0 0 0 0 0 0 0 0 0 0 0 0 0 0 0 0 0 0 0 0 0 0 0 0 0 0 0 0 0 0 0 0 0 0 0 0 0 0 0
0 0 0 0 0 0 0 0 0 0 0 0 0 0 0 0 0 0 0 0 0 0 0 0 0 0 0 0 0 0 0 0 0 0 0 0 0 0 0 0 0 0 0 0 0 0 0 0 0
0 0 0 0 0 0 0 0 0 0 0 0 0 0 0 0 0 0 0 0 0 0 0 0 0 0 0 0 0 0 0 0 0 0 0 0 0 0 0 0 0 0 0 0 0 0 0 0 0
0 0 0 0 0 0 0 0 0 0 0 0 0 0 0 0 0 0 0 0 0 0 0 0 0 0 0 0 0 0 0 0 0 0 0 0 0 0 0 0 0 0 0 0 0 0 0 0 0
0 0 0 0 0 0 0 0 0 0 0 0 0 0 0 0 0 0 0 0 0 0 0 0 0 0 0 0 0 0 0 0 0 0 0 0 0 0 0 0 0 0 0 0 0 0 0 0 0
0 0 0 0 0 0 0 0 0 0 0 0 0 0 0 0 0 0 0 0 0 0 0 0 0 0 0 0 0 0 0 0 0 0 0 0 0 0 0 0 0 0 0 0 0 0 0 0 0
0 0 0 0 0 0 0 0 0 0 0 0 0 0 0 0 0 0 0 0 0 0 0 0 0 0 0 0 0 0 0 0 0 0 0 0 0 0 0 0 0 0 0 0 0 0 0 0 0
0 0 0 0 0 0 0 0 0 0 0 0 0 0 0 0 0 0 0 0 0 0 0 0 0 0 0 0 0 0 0 0 0 0 0 0 0 0 0 0 0 0 0 0 0 0 0 0 0
0 0 0 0 0 0 0 0 0 0 0 0 0 0 0 0 0 0 0 0 0 0 0 0 0 0 0 0 0 0 0 0 0 0 0 0 0 0 0 0 0 0 0 0 0 0 0 0 0
0 0 0 0 0 0 0 0 0 0 0 0 0 0 0 0 0 0 0 0 0 0 0 0 0 0 0 0 0 0 0 0 0 0 0 0 0 0 0 0 0 0 0 0 0 0 0 0 0
0 0 0 0 0 0 0 0 0 0 0 0 0 0 0 0 0 0 0 0 0 0 0 0 0 0 0 0 0 0 0 0 0 0 0 0 0 0 0 0 0 0 0 0 0 0 0 0 0
0 0 0 0 0 0 0 0 0 0 0 0 0 0 0 0 0 0 0 0 0 0 0 0 0 0 0 0 0 0 0 0 0 0 0 0 0 0 0 0 0 0 0 0 0 0 0 0 0
0 0 0 0 0 0 0 0 0 0 0 0 0 0 0 0 0 0 0 0 0 0 0 0 0 0 0 0 0 0 0 0 0 0 0 0 0 0 0 0 0 0 0 0 0 0 0 0 0
0 0 0 0 0 0 0 0 0 0 0 0 0 0 0 0 0 0 0 0 0 0 0 0 0 0 0 0 0 0 0 0 0 0 0 0 0 0 0 0 0 0 0 0 0 0 0 0 0
0 0 0 0 0 0 0 0 0 0 0 0 0 0 0 0 0 0 0 0 0 0 0 0 0 0 0 0 0 0 0 0 0 0 0 0 0 0 0 0 0 0 0 0 0 0 0 0 0
0 0 0 0 0 0 0 0 0 0 0 0 0 0 0 0 0 0 0 0 0 0 0 0 0 0 0 0 0 0 0 0 0 0 0 0 0 0 0 0 0 0 0 0 0 0 0 0 0
0 0 0 0 0 0 0 0 0 0 0 0 0 0 0 0 0 0 0 0 0 0 0 0 0 0 0 0 0 0 0 0 0 0 0 0 0 0 0 0 0 0 0 0 0 0 0 0 0
0 0 0 0 0 0 0 0 0 0 0 0 0 0 0 0 0 0 0 0 0 0 0 0 0 0 0 0 0 0 0 0 0 0 0 0 0 0 0 0 0 0 0 0 0 0 0 0 0
0 0 0 0 0 0 0 0 0 0 0 0 0 0 0 0 0 0 0 0 0 0 0 0 0 0 0 0 0 0 0 0 0 0 0 0 0 0 0 0 0 0 0 0 0 0 0 0 0
0 0 0 0 0 0 0 0 0 0 0 0 0 0 0 0 0 0 0 0 0 0 0 0 0 0 0 0 0 0 0 0 0 0 0 0 0 0 0 0 0 0 0 0 0 0 0 0 0
0 0 0 0 0 0 0 0 0 0 0 0 0 0 0 0 0 0 0 0 0 0 0 0 0 0 0 0 0 0 0 0 0 0 0 0 0 0 0 0 0 0 0 0 0 0 0 0 0
0 0 0 0 0 0 0 0 0 0 0 0 0 0 0 0 0 0 0 0 0 0 0 0 0 0 0 0 0 0 0 0 0 0 0 0 0 0 0 0 0 0 0 0 0 0 0 0 0
0 0 0 0 0 0 0 0 0 0 0 0 0 0 0 0 0 0 0 0 0 0 0 0 0 0 0 0 0 0 0 0 0 0 0 0 0 0 0 0 0 0 0 0 0 0 0 0 0
0 0 0 0 0 0 0 0 0 0 0 0 0 0 0 0 0 0 0 0 0 0 0 0 0 0 0 0 0 0 0 0 0 0 0 0 0 0 0 0 0 0 0 0 0 0 0 0 0
0 0 0 0 0 0 0 0 0 0 0 0 0 0 0 0 0 0 0 0 0 0 0 0 0 0 0 0 0 0 0 0 0 0 0 0 0 0 0 0 0 0 0 0 0 0 0 0 0
0 0 0 0 0 0 0 0 0 0 0 0 0 0 0 0 0 0 0 0 0 0 0 0 0 0 0 0 0 0 0 0 0 0 0 0 0 0 0 0 0 0 0 0 0 0 0 0 0
0 0 0 0 0 0 0 0 0 0 0 0 0 0 0 0 0 0 0 0 0 0 0 0 0 0 0 0 0 0 0 0 0 0 0 0 0 0 0 0 0 0 0 0 0 0 0 0 0
0 0 0 0 0 0 0 0 0 0 0 0 0 0 0 0 0 0 0 0 0 0 0 0 0 0 0 0 0 0 0 0 0 0 0 0 0 0 0 0 0 0 0 0 0 0 0 0 0
0 0 0 0 0 0 0 0 0 0 0 0 0 0 0 0 0 0 0 0 0 0 0 0 0 0 0 0 0 0 0 0 0 0 0 0 0 0 0 0 0 0 0 0 0 0 0 0 0
Wind_Speed
10 9 5 2 2 4 6 4 2 2 1 4 5 4 4 5 4 6 3 5 6 6 6 5 8 9 10 10 10 11 11 11 11 11 11 12 12 12 12 13 13 13 13 13 13 13 13 13 13
8 5 3 2 4 5 5 5 2 2 4 4 5 3 4 6 7 7 4 4 5 5 6 5 8 10 11 11 11 11 11 11 10 11 11 11 12 12 12 13 13 13 13 13 13 13 13 12 12
9 5 3 3 4 5 3 2 4 5 5 3 3 4 4 5 5 4 5 4 5 6 5 6 9 10 11 11 11 11 11 11 11 11 11 11 12 12 12 13 13 12 12 12 12 12 12 11 10
4 3 3 4 7 5 3 1 4 5 4 3 4 4 6 5 4 5 5 4 6 6 6 7 10 10 10 10 10 11 11 11 11 11 11 11 11 11 12 12 12 12 12 12 12 12 11 10 9
3 3 4 5 7 5 2 1 1 2 4 3 3 4 5 4 7 6 5 5 6 6 6 6 9 10 10 11 11 11 11 11 11 11 10 11 11 11 11 12 12 12 12 11 11 11 11 10 9
2 3 4 6 6 5 3 0 1 1 2 3 3 3 5 5 6 5 6 6 6 7 7 6 9 9 9 10 10 10 11 11 11 10 10 10 10 11 11 11 11 11 12 11 11 11 10 10 9
3 3 5 6 5 5 3 1 0 1 2 2 2 3 6 5 5 5 6 6 7 7 7 6 5 6 8 9 10 10 10 10 10 10 10 10 10 10 11 11 10 11 11 11 11 10 10 9 9
3 3 5 6 5 3 2 2 2 2 2 3 3 3 5 4 4 5 6 6 7 7 6 5 5 5 4 5 8 9 9 9 9 9 9 9 9 9 10 10 10 10 10 10 10 9 9 8 8
3 3 4 4 3 1 2 1 2 3 3 3 4 5 6 8 6 5 5 5 5 6 5 5 4 4 4 4 6 7 8 8 8 7 8 7 4 5 6 8 9 9 9 9 8 8 7 7 6
2 3 4 3 3 1 2 2 1 2 1 2 4 6 7 6 5 5 4 4 4 4 4 4 4 4 3 3 3 3 3 4 4 4 3 3 4 4 5 7 8 8 8 7 7 6 5 4 2
2 3 2 3 4 2 2 2 2 1 1 1 3 5 6 5 4 4 3 3 4 3 4 3 3 3 3 2 3 2 2 2 3 4 3 3 3 3 3 3 3 4 4 3 3 3 2 3 3
3 2 2 2 4 2 1 1 2 1 1 3 3 5 5 5 4 4 4 3 4 4 4 3 3 3 3 3 2 2 2 2 2 2 3 2 2 2 2 2 2 2 2 2 2 1 2 3 3
5 3 2 1 2 2 1 1 1 1 1 4 4 5 5 4 4 4 4 4 4 4 4 3 3 2 2 3 2 3 2 2 2 2 2 3 2 2 2 2 1 2 2 1 2 2 2 3 3
1 1 2 2 1 1 1 2 2 2 2 3 4 4 4 5 4 4 4 3 3 3 3 3 3 3 3 2 2 2 2 2 2 2 3 3 2 2 2 2 1 2 1 1 1 2 2 2 2
2 2 4 4 4 2 1 4 5 4 4 3 4 4 5 4 4 4 3 3 3 3 3 3 3 3 3 3 2 2 2 2 2 2 2 3 3 2 2 2 2 1 1 1 1 2 2 2 2
3 4 4 4 5 4 3 5 3 5 5 4 4 4 4 3 4 3 3 3 3 3 3 3 3 3 3 3 2 2 2 2 2 2 2 3 3 2 2 2 1 1 1 1 1 1 2 2 2
4 5 5 3 5 4 5 4 3 4 5 4 4 4 4 3 3 3 2 3 3 3 3 3 3 2 2 2 2 2 2 2 2 2 2 2 3 2 1 1 1 1 1 1 1 1 1 1 1
3 5 5 4 4 4 5 5 3 3 4 4 3 4 4 3 2 2 3 3 4 4 3 3 3 3 2 2 2 2 2 2 2 2 2 3 2 2 2 1 1 1 1 1 1 1 1 1 1
5 6 6 3 0 2 5 6 4 3 3 3 3 3 3 3 3 3 3 4 4 4 3 3 3 2 2 1 1 1 1 1 2 2 2 2 2 2 2 1 1 1 1 0 1 1 1 1 1
6 6 6 4 1 2 4 7 5 4 4 3 3 3 3 2 3 3 3 3 3 3 3 2 2 1 1 1 0 0 1 1 1 2 2 2 2 2 1 1 1 0 0 0 0 1 1 0 0
5 5 4 4 4 3 3 6 5 3 3 3 3 3 3 3 3 3 3 3 3 2 2 1 1 1 1 1 1 1 1 1 1 1 1 1 1 1 1 0 0 0 0 0 0 1 1 1 1
4 2 3 3 2 3 2 5 5 5 4 4 4 3 3 2 2 2 3 3 3 2 2 2 1 1 1 1 1 1 1 1 1 1 0 1 1 1 1 1 1 0 0 0 1 0 0 1 1
2 3 3 4 3 4 4 5 6 5 5 5 4 4 3 3 3 2 2 2 3 2 2 1 1 1 1 1 1 1 0 0 0 1 1 1 1 1 1 0 0 0 0 0 0 0 0 1 1
1 2 3 3 2 5 7 6 6 4 5 4 5 4 4 3 3 2 3 3 2 2 2 2 2 1 1 1 1 0 0 0 1 1 1 0 1 1 0 1 1 0 0 1 1 1 1 1 1
1 0 1 2 3 6 4 5 6 1 1 3 5 5 5 4 3 3 2 2 2 2 2 1 1 1 1 1 1 1 0 0 1 1 1 1 0 1 1 1 1 1 1 1 1 1 2 2 1
3 2 2 3 4 2 1 5 3 2 3 4 3 4 5 4 3 2 2 2 2 2 2 1 1 1 1 1 1 1 1 0 0 0 1 1 1 1 1 1 1 1 1 1 1 1 2 2 2
2 3 1 2 3 3 5 4 2 3 3 2 2 3 3 3 2 2 2 2 2 2 1 1 1 1 1 1 1 1 1 1 1 1 1 1 1 1 1 1 1 1 1 1 1 2 2 2 2
2 1 1 2 3 4 5 5 4 4 4 3 2 2 2 2 2 2 1 1 2 2 1 1 1 1 2 2 1 1 1 1 1 1 1 2 1 1 1 1 2 1 1 1 1 2 2 2 2
2 2 3 3 3 3 4 4 1 3 4 4 3 2 2 2 1 1 1 1 2 2 2 2 1 2 2 2 1 1 2 1 1 1 1 2 2 1 1 2 2 2 2 2 2 2 2 2 3
2 3 4 3 4 4 3 5 2 3 3 3 3 2 2 2 1 1 1 2 2 2 2 2 1 2 2 2 2 2 2 2 1 2 2 2 2 2 2 2 2 2 2 2 2 3 3 3 3
Wind_Direction
289 266 251 257 245 233 233 236 251 103 71 44 45 57 59 39 46 105 118 71 78 90 101 99 87 88 86 83 81 80 80 79 76 75 73 72 71 72 72 71 71 71 70 70 70 70 71 71 71
285 273 257 240 239 230 230 209 218 70 89 75 49 47 68 70 67 95 93 64 82 92 101 98 88 88 86 84 81 80 79 80 78 76 74 74 73 72 70 70 69 68 69 68 68 69 70 69 70
271 257 238 229 234 235 228 143 122 100 88 92 85 43 47 65 67 76 79 78 86 88 94 94 89 87 86 83 81 80 79 78 77 76 73 74 73 73 72 69 68 69 69 69 69 67 68 67 68
261 231 242 243 239 246 253 53 93 109 97 98 110 92 75 42 46 73 84 85 88 84 88 94 91 90 86 83 81 80 79 78 76 76 72 72 72 73 72 69 67 68 69 70 70 67 67 66 64
248 238 224 232 240 254 275 92 108 129 138 138 123 112 89 69 67 78 82 81 83 81 87 97 91 89 86 85 82 80 77 78 77 76 74 73 72 73 72 68 68 69 69 71 72 69 65 63 59
245 242 231 225 224 230 240 64 127 155 133 120 115 112 102 89 73 71 78 77 77 79 82 88 87 86 83 83 82 80 77 76 75 74 73 72 72 72 73 70 68 70 69 69 69 67 64 61 55
258 247 248 242 227 222 199 123 245 161 97 63 48 105 114 96 77 79 82 80 72 74 77 77 74 80 79 79 78 79 79 77 74 71 70 68 69 71 71 68 68 69 69 67 66 63 59 56 51
283 276 250 244 239 237 117 101 37 30 67 43 27 99 123 117 103 93 86 78 72 69 68 70 72 72 75 83 79 78 76 74 72 71 69 67 65 66 65 63 64 64 64 63 63 60 55 52 46
277 255 246 248 251 227 91 92 53 41 67 62 52 55 93 116 114 101 89 76 68 65 58 60 66 65 70 79 84 82 77 72 71 70 69 68 69 67 63 61 60 61 61 59 60 58 52 44 37
237 244 250 314 336 40 43 39 92 113 117 104 90 84 98 109 115 115 112 103 90 79 65 52 60 62 65 73 80 87 87 83 75 70 72 64 58 61 65 57 60 60 59 56 53 48 42 28 20
228 249 278 324 2 28 25 15 358 190 220 155 140 129 118 117 116 115 109 103 103 102 84 61 53 57 61 68 76 73 88 88 82 76 67 73 74 72 69 65 55 57 55 48 40 31 16 21 21
245 279 291 321 357 16 15 335 329 345 11 54 84 126 133 136 133 121 100 79 75 78 81 77 60 61 61 62 73 67 72 80 75 73 71 74 78 73 71 67 55 44 42 28 17 13 18 21 26
236 250 306 347 13 6 29 280 275 253 51 74 90 115 134 130 112 94 91 79 73 65 58 57 61 65 69 66 61 68 63 74 80 74 69 67 73 83 80 75 63 53 41 23 3 4 25 29 23
256 241 251 242 248 268 247 262 244 209 132 128 134 128 115 105 96 82 78 82 79 78 71 63 60 49 55 70 72 72 69 69 75 72 64 64 65 73 81 78 64 52 42 19 10 12 28 32 32
257 256 244 220 213 186 205 252 219 182 162 163 148 127 109 99 93 90 85 85 82 82 79 72 71 54 53 60 71 75 76 75 75 74 68 68 65 62 60 69 58 39 31 20 13 26 41 43 43
228 231 233 201 190 188 203 252 172 178 178 175 151 129 117 101 91 86 82 82 81 80 80 72 70 59 51 53 58 70 69 68 67 71 73 68 66 60 53 59 56 32 29 35 24 31 48 45 42
216 235 233 207 188 180 208 246 191 185 180 172 150 136 126 110 93 89 91 94 88 87 85 77 68 65 56 53 60 69 76 68 56 53 53 53 57 54 53 63 55 39 42 48 24 26 53 55 42
234 243 249 228 180 191 218 238 231 196 180 167 148 137 129 123 117 105 103 102 96 91 86 81 70 54 59 62 61 62 71 70 59 56 52 50 45 44 36 61 60 39 52 40 44 54 44 62 67
292 275 270 279 126 233 236 247 234 191 176 166 160 142 132 135 118 109 111 109 104 93 86 81 74 57 63 79 95 96 77 62 49 45 58 63 48 47 47 35 54 25 67 53 22 66 84 44 55
270 273 282 302 329 256 258 260 244 204 192 170 159 149 137 116 105 113 112 108 108 107 103 98 92 84 69 65 73 125 105 84 67 46 34 62 52 49 42 50 70 23 31 105 86 78 70 309 24
263 262 277 290 312 264 273 273 216 191 172 156 149 143 135 132 129 118 115 108 97 92 97 96 93 86 67 60 66 72 77 68 58 43 13 47 64 51 51 50 50 52 109 173 185 157 167 198 280
265 311 290 286 286 266 215 273 233 193 186 183 176 162 147 123 108 103 96 92 90 76 73 77 66 52 43 81 102 121 132 149 167 158 82 343 83 66 31 34 29 62 69 178 232 130 193 173 211
298 330 279 252 255 274 229 239 264 173 208 203 177 160 148 138 131 119 106 103 95 89 82 79 76 62 40 32 66 128 108 9 54 102 89 20 6 83 69 47 4 12 218 209 222 222 199 207 211
279 294 268 237 238 258 222 210 261 200 207 181 173 163 158 153 143 124 101 93 91 84 78 65 64 56 31 22 46 121 184 130 100 132 143 68 345 333 5 357 319 279 262 236 222 213 203 231 245
262 28 305 238 222 243 191 206 245 166 114 145 165 167 158 150 139 126 110 104 102 95 86 66 58 43 19 11 18 356 319 247 194 186 170 178 239 316 303 309 283 288 286 285 269 232 213 217 228
222 210 208 235 248 276 240 230 241 141 99 92 100 129 138 141 137 127 130 127 119 105 95 86 63 33 16 14 9 357 350 324 303 285 224 208 212 227 256 277 278 277 280 284 281 256 234 225 221
205 212 266 285 287 270 246 236 239 135 116 110 102 101 110 120 126 119 98 104 115 112 101 88 55 36 11 354 359 342 340 356 345 330 298 254 233 242 239 258 283 275 260 261 262 259 257 244 234
287 218 148 195 243 259 256 237 231 191 188 149 128 126 123 111 103 91 82 72 79 103 102 87 58 32 16 8 1 342 333 334 324 305 324 312 302 289 235 241 249 270 275 265 254 262 262 254 249
195 202 217 231 237 247 267 262 351 147 157 161 161 158 145 140 130 112 86 75 68 67 74 67 50 32 19 7 347 340 326 323 324 311 312 303 310 290 267 248 240 240 252 258 255 257 256 252 255
221 208 186 199 241 224 250 268 6 88 109 125 131 127 122 128 122 93 78 72 71 62 55 49 26 14 2 353 345 334 324 326 328 320 313 310 307 303 285 263 254 251 246 238 238 251 255 250 250